{"data":{"norad_id":58865,"intl_designator":"2024-019N","name":"STARLINK-31223","alt_names":[],"object_type":"PAYLOAD","status":"ACTIVE","operator":null,"country":"US","launch_date":"2024-01-29","launch_site_code":"AFETR","launch_vehicle":null,"mission":null,"orbit_class":"UNKNOWN","rcs_meters":null,"size_class":null,"mass_kg":null,"dimensions":null,"purposes":["comms"],"wikipedia_slug":null,"has_3d_model":false,"image_url":null,"decayed_at":null,"tle_current":{"epoch":"2026-05-25T01:41:27.076128Z","epoch_age_seconds":65624,"freshness":"FRESH","line1":"1 58865U 24019N   26145.07045227  .00001076  00000+0  48609-4 0  9997","line2":"2 58865  43.0031 177.5907 0001276 275.1038  84.9668 15.27575080130749","mean_motion":15.2757508,"eccentricity":0.0001276,"inclination_deg":43.0031,"raan_deg":177.5907,"arg_perigee_deg":275.1038,"mean_anomaly_deg":84.9668,"bstar":4.8609e-5,"rev_number":13074,"period_min":94.267052327143,"perigee_km":482.18833910346,"apogee_km":483.93931755485,"semimajor_km":6861.2008283292,"source":"CELESTRAK","updated_at":"2026-05-25T13:38:18.759798Z"}}}